Location: Cabanillas del Monte
(40.9765°N, 4.0317°W)
Time: 13:09:27
(UTC+00:00)

Daily predictions for brighter satellites

Satellite Brightness Start Highest point End
(mag) Time Altitude Azimuth Time Altitude Azimuth Time Altitude Azimuth
COSMOS 2406 4.5 20:13:49 10° SE 20:17:55 20° E 20:22:03 10° NE
Cosmos 1833 Rocket 3.2 20:18:09 10° S 20:23:18 39° ESE 20:28:29 10° NE
Okean O Rocket 4.5 20:21:47 10° SW 20:24:10 14° W 20:26:33 10° WNW
H-2A R/B 2.2 20:23:53 10° NNE 20:28:19 60° ESE 20:32:46 10° S
Cosmos 1536 Rocket 4.2 20:25:47 10° SSE 20:29:43 36° E 20:33:43 10° NNE
Cosmos 1703 4.4 20:27:45 10° SSE 20:30:57 25° E 20:34:09 10° NNE
Okean-O 3.9 20:26:52 10° S 20:31:02 41° W 20:35:14 10° NNW
Cosmos 676 Rocket 4.2 20:27:07 10° NNW 20:32:25 77° WSW 20:37:38 10° SSE
Cosmos 1975 Rocket 4.2 20:31:24 10° SSW 20:35:42 49° W 20:39:59 10° N
Ariane Rocket 3.5 20:32:21 10° SE 20:37:12 47° ENE 20:42:04 10° N
IRS-1A Rocket 4.4 20:37:23 10° SSE 20:43:16 72° ENE 20:49:07 10° N
PSLV R/B 3.9 20:39:36 10° NNE 20:43:47 80° E 20:47:58 10° S
Landsat 7 4.3 20:40:49 10° S 20:45:29 62° W 20:50:10 10° NNW
Terra 3.7 20:44:33 10° E 20:47:23 16° ENE 20:50:14 10° NNE
CZ-4B R/B 1.0 20:44:58 10° NNE 20:47:49 57° E 20:50:40 10° S
SPOT 3 Rocket 4.3 20:44:20 11° SE 20:48:52 39° ENE 20:53:41 10° N
SPOT 5 4.1 20:46:56 11° ESE 20:49:58 21° ENE 20:53:15 10° NNE
ATLAS 2AS CENTAUR R/B 3.2 20:43:15 10° NW 20:50:04 57° WSW 20:56:28 10° SSE
RESURS DK-1 2.5 20:49:27 10° NNW 20:53:34 64° ENE 20:56:54 15° SE
Cosmos 1544 Rocket 3.7 20:50:09 10° N 20:54:30 75° W 20:58:50 10° S
Cosmos 1271 Rocket 3.1 20:52:25 10° NNW 20:56:21 64° W 21:00:11 10° S
SL-24 R/B 4.4 20:52:19 11° SSE 20:56:26 66° ENE 21:01:25 10° N
Cosmos 1455 2.5 20:52:50 10° NNW 20:56:38 69° W 21:00:26 10° S
Cosmos 1331 Rocket 4.0 20:55:10 10° S 21:00:24 66° ESE 21:05:40 10° NNE
Cosmos 1850 Rocket 4.0 20:55:37 10° NNW 21:00:49 73° ENE 21:05:09 15° SSE
Cosmos 2082 Rocket 2.9 20:56:29 10° SSE 21:01:31 33° ESE 21:06:33 10° NE
IRAS Rocket 4.2 20:59:03 10° NNE 21:04:37 67° ESE 21:10:06 10° S
Cosmos 2074 Rocket 4.1 20:59:35 10° N 21:05:50 66° E 21:11:20 13° SSE
Helios 1A Rocket 4.2 21:04:55 16° ESE 21:07:15 27° ENE 21:10:44 10° N
Spot 2 Rocket 4.3 21:04:02 16° SE 21:07:35 37° ENE 21:12:16 10° N
Cosmos 2084 Rocket 4.2 21:07:39 10° NNW 21:11:19 36° NE 21:13:53 18° ESE
Nadezhda 1 Rocket 4.1 21:06:41 11° SSE 21:12:21 52° E 21:18:13 10° NNE
GEOS 3 Rocket 3.6 21:09:16 17° SE 21:13:15 87° SW 21:18:24 10° NW
Lacrosse 5 3.6 21:10:48 10° WNW 21:14:52 24° WSW 21:18:54 10° S
Delta 2 Rocket 3.7 21:13:35 10° WSW 21:16:36 31° S 21:17:32 26° SSE
SPOT 1/Viking Rocket 4.0 21:12:11 10° S 21:17:15 61° W 21:22:23 10° NNW
X-37B 0.2 21:21:37 10° WNW 21:24:25 80° NNE 21:25:27 35° ESE
ERS-1 Rocket 3.4 21:22:07 21° SE 21:25:07 46° ENE 21:29:56 10° N
Cosmos 1656 4.4 21:20:08 10° NW 21:25:24 48° WSW 21:30:07 13° S
Cosmos 1892 4.2 21:26:26 19° E 21:26:48 19° E 21:29:31 10° NE
MetOp-B 4.3 21:23:24 14° S 21:28:01 71° WSW 21:33:23 10° NNW
Meteor 1-21 Rocket 4.2 21:23:30 10° S 21:29:04 82° E 21:34:49 10° NNE
Cosmos 1302 Rocket 4.0 21:27:47 12° S 21:32:32 61° ESE 21:37:38 10° NNE
Cosmos 192 4.2 21:30:54 10° SSW 21:35:47 77° ESE 21:40:41 10° NNE
Cosmos 2228 3.0 21:32:37 10° N 21:36:52 81° W 21:39:22 24° S
SL-8 R/B 3.7 21:32:08 10° WNW 21:36:55 68° SW 21:39:18 29° SE
Cosmos 1892 Rocket 3.8 21:38:01 29° SSE 21:39:51 48° E 21:44:04 10° NNE
Cosmos 2154 Rocket 3.9 21:33:59 10° N 21:40:14 85° E 21:44:32 21° S
Cosmos 968 Rocket 3.8 21:38:55 10° N 21:44:02 53° ENE 21:46:30 29° SE
Cosmos 1697 Rocket 2.8 21:40:57 10° NNW 21:46:33 71° WSW 21:49:50 25° S
Cosmos 1980 Rocket 2.4 21:41:38 10° NNW 21:47:17 59° ENE 21:50:07 29° SE
Cosmos 1408 2.9 21:48:44 40° ESE 21:48:57 41° E 21:52:13 10° NNE
SL-16 R/B 4.1 21:45:39 10° N 21:49:34 19° NE 21:52:57 12° E
ATLAS 5 CENTAUR R/B 1.2 21:50:51 44° SSE 21:51:33 51° ESE 21:55:23 10° NE
Cosmos 2058 Rocket 3.8 21:47:55 10° N 21:52:06 39° ENE 21:53:20 32° ESE
Resurs 01 Rocket 3.9 21:49:16 10° SW 21:52:30 20° W 21:55:45 10° NW
Cosmos 2369 3.7 21:50:00 10° NNW 21:55:46 78° ENE 21:58:31 32° SSE
CZ-2C R/B 3.5 21:51:57 10° NNE 21:56:29 83° ESE 21:58:48 28° S
USA 267 3.8 21:51:37 10° ENE 21:57:26 34° SE 21:59:31 28° SSE
Meteor 2-1 Rocket 4.3 21:56:03 10° NNW 22:01:33 72° W 22:04:42 26° S
COSMOS 2406 3.9 21:56:05 10° SW 22:01:44 57° WNW 22:07:25 10° NNE
SJ 16-02 3.8 22:00:44 10° NE 22:01:56 11° NE 22:03:07 10° ENE
Cosmos 1825 3.1 22:08:00 31° E 22:08:00 31° E 22:11:02 10° NNE
Cosmos 1867 3.5 22:07:48 10° NNW 22:13:18 82° ENE 22:15:18 41° SE
Cosmos 1606 Rocket 4.3 22:10:58 10° NNW 22:15:07 47° W 22:16:56 29° SSW
Cosmos 2366 rocket 4.3 22:09:39 10° N 22:15:51 52° ENE 22:18:16 35° SE
Cosmos 1869 4.2 22:14:45 10° N 22:18:21 34° ENE 22:18:25 34° E
Cosmos 2218 Rocket 4.2 22:16:01 10° N 22:22:21 59° E 22:24:42 38° SE
ARIANE 5 R/B 2.6 22:21:46 51° S 22:22:53 82° WSW 22:27:19 10° NNW
Cosmos 2322 Rocket 3.8 22:19:16 10° N 22:23:50 24° NE 22:26:28 18° E
Terra 2.2 22:22:57 36° SSW 22:24:39 58° W 22:29:21 10° NNW
GP-B 3.0 22:21:21 10° N 22:25:47 68° E 22:26:26 58° SE
Meteor 1-27 4.4 22:20:23 10° N 22:25:52 57° ENE 22:27:28 42° SE
SPOT 5 3.9 22:26:09 24° SW 22:27:52 33° W 22:31:47 10° NNW
USA 276 4.0 22:25:33 10° NW 22:28:06 24° NNE 22:28:42 22° NE
SAR-Lupe-4 3.9 22:26:33 10° NNE 22:29:35 52° ENE 22:29:35 52° ENE
FALCON 9 DEB 4.1 22:27:23 10° NW 22:30:28 38° NNE 22:30:31 38° NE
Cosmos 2344 4.4 22:21:25 10° NW 22:30:53 77° WSW 22:38:18 30° SSE
Cosmos 1959 Rocket 4.5 22:26:19 10° N 22:32:26 67° E 22:34:27 43° SSE
Cosmos 2278 3.6 22:31:55 10° NNW 22:37:41 88° ENE 22:39:18 49° SSE
Cosmos 1633 4.0 22:39:00 27° NE 22:39:00 27° NE 22:41:04 10° NNE
Cosmos 1992 Rocket 4.1 22:37:43 34° SSW 22:40:02 75° WNW 22:45:18 10° NNE
Okean 1-7 Rocket 3.5 22:40:57 67° S 22:41:33 90° SE 22:46:05 10° N
Cosmos 2341 Rocket 4.1 22:35:22 10° NNW 22:41:37 70° W 22:44:11 37° SSW
Cosmos 1758 Rocket 4.4 22:42:24 35° E 22:42:24 35° E 22:46:04 10° NNE
Cosmos 864 Rocket 4.4 22:36:16 10° N 22:42:30 81° E 22:44:32 46° SSE
Cosmos 2082 Rocket 3.6 22:40:17 10° SW 22:45:30 36° WNW 22:50:45 10° N
SAR-Lupe-1 4.3 22:43:18 10° N 22:46:41 68° NW 22:46:41 68° NW
Cosmos 1486 Rocket 3.9 22:43:50 10° NNW 22:49:05 87° ENE 22:50:04 60° SSE
ASTEX 1 3.6 22:44:48 10° N 22:49:46 69° W 22:51:10 46° SSW
Cosmos 1606 4.3 22:51:38 10° NNE 22:54:21 25° ENE 22:54:21 25° ENE
Cosmos-2242 3.8 22:51:22 10° N 22:55:10 39° ENE 22:55:10 39° ENE
Cosmos 1812 Rocket 3.9 22:51:48 10° N 22:56:09 53° ENE 22:56:09 53° ENE
ADEOS Rocket 4.3 22:53:13 28° ESE 22:56:28 41° ENE 23:03:34 10° N
Gbstr 26 Del rocket 3.6 22:58:59 45° ENE 22:58:59 45° ENE 23:02:25 10° ENE
Cosmos 2360 Rocket 3.6 22:53:32 10° N 22:58:25 28° NE 23:00:32 23° E
Cosmos 1892 4.5 23:01:15 22° W 23:02:09 25° WNW 23:05:19 10° NNW
Cosmos 2181 Rocket 4.4 23:01:56 32° SW 23:04:41 58° W 23:10:52 10° N
Cosmos 1602 Rocket 3.4 23:05:35 86° NNW 23:05:35 86° NNW 23:09:50 10° N
Cosmos 1821 Rocket 4.0 23:03:53 10° N 23:10:04 66° E 23:11:22 53° SE
Cosmos 44 4.3 23:14:09 32° ENE 23:14:09 32° ENE 23:16:58 10° NE
Cosmos 1354 Rocket 3.9 23:13:43 10° NNW 23:19:02 78° ENE 23:19:33 70° ESE
Cosmos 2237 4.4 23:15:44 10° NNW 23:21:27 64° ENE 23:22:30 54° ESE
CENTAUR R/B 4.2 23:22:31 15° E 23:22:31 15° E 23:25:07 10° ENE
ALOS 2 3.2 23:21:37 45° ENE 23:21:37 45° ENE 23:25:41 10° N
Spot 4 3.7 23:21:49 77° E 23:21:58 78° ENE 23:26:46 10° N
ERS-2 4.5 23:21:54 10° NE 23:22:56 15° ENE 23:22:56 15° ENE
Cosmos 1503 Rocket 3.9 23:22:15 10° NNW 23:27:31 72° WSW 23:27:51 70° SW
Cosmos 2058 3.5 23:29:58 51° NE 23:29:58 51° NE 23:33:19 10° NNE
Nadezhda 3 Rocket 3.8 23:28:02 60° S 23:29:14 86° E 23:35:26 10° N
Cosmos 1980 Rocket 4.0 23:26:51 10° NW 23:30:43 19° W 23:31:53 18° WSW
Cosmos 1953 Rocket 4.4 23:33:03 42° ENE 23:33:03 42° ENE 23:36:34 10° NNE
Cosmos 1777 Rocket 4.0 23:27:24 10° NNW 23:32:41 66° ENE 23:33:07 63° E
H-2A R/B 3.9 23:29:20 10° NNE 23:32:48 56° NE 23:32:48 56° NE
Cosmos 2219 Rocket 3.9 23:29:31 10° N 23:34:07 25° NE 23:36:40 18° E
SL-16 R/B 2.1 23:28:35 10° NNW 23:34:15 73° WSW 23:34:48 67° SSW
ATLAS 5 CENTAUR R/B 4.1 23:34:00 10° WNW 23:36:27 16° NW 23:39:06 10° N
SL-4 R/B 3.2 23:40:05 34° NNW 23:40:05 34° NNW 23:43:06 10° NE
Cosmos 1825 Rocket 3.8 23:41:10 67° N 23:41:10 67° N 23:44:58 10° N
USA 267 3.5 23:34:12 10° NE 23:40:42 69° NW 23:46:45 12° WSW
SJ 16-02 1.6 23:36:37 10° NNW 23:40:31 66° NW 23:40:31 66° NW
Meteor 2-2 Rocket 4.4 23:37:14 10° N 23:43:16 69° E 23:44:11 59° SE
Cosmos 2221 3.5 23:48:33 10° N 23:52:14 39° ENE 23:52:14 39° ENE
